Location: Sternwarte auf dem Internationalen Platz Vogelsang IP
(50.5721°N, 6.4398°E)
Time: 22:04:10
(UTC+01:00)

Transit 2A Rocket - Pass Details

Date: 10 December 2025
Orbit: 581 x 903 km, 66.7° (Epoch: 12 January)

Event Time Altitude Azimuth Distance (km) Brightness Sun altitude
Rises 15:39:22 0° 317° (NW) 3,517 8.4 5.1°
Reaches altitude 10° 15:42:25 10° 332° (NNW) 2,589 7.6 4.8°
Maximum altitude 15:47:13 24° 24° (NNE) 1,801 6.5 4.3°
Drops below altitude 10° 15:51:56 10° 76° (ENE) 2,554 7.2 3.7°
Sets 15:54:56 0° 90° (E) 3,460 7.9 3.4°
